www.pogodaiklimat.ru

Погода и климат >> Архив погоды >> Россия >> Якутия >> Депутатский


ПОГОДА в Депутатском

  • Прогноз погоды в Депутатском
  • Монитор погоды в Депутатском

АРХИВ ПОГОДЫ в Депутатском

Время (UTC), дата Ветер
(напр.,м/с)
 
Видим.   Явления Облачность Т
(С)
Тd
(С)
f
(%)
Тe
(С)
Тes
(С)
Комфортность P
(гПа)
Po
(гПа)
Тmin
(С)
Tmax
(С)
R
(мм)
R24
(мм)
S
(см)
15 13.03 штиль 0 20 км ясно -38.5 -41.3 75 -39 -39 опасность
обморожения
1021.7 980.2
18 13.03 З 1 20 км ясно -40.9 -44.4 69 -46 -46 опасность
обморожения
1021.5 979.6
21 13.03 ЮЗ 1 20 км ясно -41.1 -44.4 70 -46 -46 опасность
обморожения
1021.5 979.6 -41.2 24
00 14.03 З 1 20 км 4/0
[Ac trans Ci fib]
-34.6 -37.4 76 -39 -38 опасность
обморожения
1020.0 979.3
03 14.03 З 2 20 км 8/0
[Ac trans Ci fib]
-25.2 -29.8 65 -32 -30 опасность
обморожения
1017.2 978.2
06 14.03 З 2 20 км 8/3 1000 м
[Sc Ac trans Ci fib]
-21.1 -26.8 60 -27 -27 1016.5 978.1
09 14.03 З 2 20 км в посл. час снег 10/4 1000 м
[Sc Ci fib]
-25.0 -28.8 71 -32 -32 опасность
обморожения
1017.7 978.7 -21.0 0.0
12 14.03 ЮЗ 2 20 км {снег} 6/3 1000 м
[Sc Ci fib]
-29.0 -31.3 80 -36 -36 опасность
обморожения
1019.1 979.4
15 14.03 штиль 0 20 км 5/0
[Ci fib]
-32.4 -35.5 74 -32 -32 опасность
обморожения
1019.8 979.5
18 14.03 З 1 20 км 3/0
[Ci fib]
-36.4 -39.4 74 -41 -41 опасность
обморожения
1020.6 979.6
21 14.03 З 1 20 км 5/0
[Ci fib]
-37.2 -40.1 74 -42 -42 опасность
обморожения
1021.3 980.1 -37.7 24
00 15.03 ЮЗ 1 20 км 3/0
[Ci fib]
-33.7 -36.5 76 -38 -37 опасность
обморожения
1021.0 980.4
03 15.03 З 1 20 км ясно -26.1 -30.0 70 -30 -27 1019.3 980.0
06 15.03 штиль 0 20 км 4/0
[Ci fib]
-23.0 -27.8 65 -23 -22 1018.8 980.0
09 15.03 штиль 0 20 км ясно -31.1 -34.7 70 -31 -31 опасность
обморожения
1021.0 980.9 -22.5
12 15.03 З 1 20 км ясно -34.4 -39 -39 опасность
обморожения
1022.2 981.6
15 15.03 штиль 0 20 км ясно -38.4 -41.3 74 -38 -38 опасность
обморожения
1023.1 981.8
18 15.03 штиль 0 20 км ясно -40.0 -43.8 67 -40 -40 опасность
обморожения
1023.8 982.1
21 15.03 штиль 0 20 км 8/0
[Ci fib]
-42.1 -45.5 69 -42 -42 опасность
обморожения
1024.7 982.5 -42.4 24
00 16.03 З 2 20 км ясно -36.8 -40.4 69 -45 -44 опасность
обморожения
1023.9 982.6
03 16.03 З 2 20 км ясно -29.0 -33.5 65 -36 -34 опасность
обморожения
1021.7 981.9
06 16.03 ЮЗ 2 20 км ясно -24.9 -30.5 60 -32 -31 опасность
обморожения
1020.7 981.6
09 16.03 З 2 20 км ясно -29.4 -33.1 70 -37 -37 опасность
обморожения
1021.8 982.0 -24.8
12 16.03 З 1 20 км ясно -36.4 -40.0 69 -41 -41 опасность
обморожения
1023.3 982.3
15 16.03 З 2 20 км ясно -39.2 -41.7 77 -48 -48 опасность
обморожения
1023.7 982.2
18 16.03 З 1 20 км ясно -40.7 -43.2 77 -46 -46 опасность
обморожения
1023.9 982.0
21 16.03 З 1 20 км ясно -40.8 -44.4 68 -46 -46 опасность
обморожения
1023.9 982.0 -41.0 24
00 17.03 З 1 20 км ясно -36.0 -39.0 74 -41 -39 опасность
обморожения
1022.8 981.8
03 17.03 ЮЗ 2 20 км ясно -27.8 -31.7 69 -35 -32 опасность
обморожения
1020.6 981.0
06 17.03 штиль 0 20 км ясно -24.5 -28.5 69 -25 -23 1019.8 980.8
09 17.03 З 1 20 км ясно -28.0 -31.8 70 -32 -32 опасность
обморожения
1021.9 982.3 -24.0
12 17.03 З 1 20 км ясно -35.6 -38.3 76 -40 -40 опасность
обморожения
1024.6 983.3
15 17.03 штиль 0 20 км ясно -39.4 -42.2 75 -39 -39 опасность
обморожения
1025.1 983.5
18 17.03 штиль 0 20 км ясно -41.0 -43.8 74 -41 -41 опасность
обморожения
1025.9 983.9
21 17.03 штиль 0 20 км ясно -42.4 -44.8 77 -42 -42 опасность
обморожения
1026.6 984.4 -42.6 24
00 18.03 З 1 20 км 4/0
[Ci fib]
-37.4 -40.7 71 -42 -41 опасность
обморожения
1026.0 984.7
03 18.03 З 2 20 км 3/0
[Ci fib]
-30.4 -34.9 65 -38 -35 опасность
обморожения
1024.3 984.2
06 18.03 З 1 20 км 1/0
[Ci fib]
-26.0 -31.4 60 -30 -28 1023.4 984.0
09 18.03 З 1 20 км 3/0
[Ci fib]
-30.1 -33.9 69 -34 -34 опасность
обморожения
1025.1 985.0 -25.9
12 18.03 ЮЗ 1 20 км ясно -36.1 -39.0 74 -41 -41 опасность
обморожения
1026.9 985.7
15 18.03 З 1 20 км ясно -40.1 -42.7 76 -45 -45 опасность
обморожения
1028.0 986.0
18 18.03 З 1 20 км ясно -41.9 -44.8 73 -47 -47 опасность
обморожения
1028.5 986.2
21 18.03 З 1 20 км ясно -42.2 -44.8 76 -48 -48 опасность
обморожения
1028.9 986.6 -42.4 24
00 19.03 З 1 20 км ясно -37.5 -40.5 73 -42 -40 опасность
обморожения
1028.3 986.7 -42.7
03 19.03 ЮЗ 3 20 км ясно -29.4 -33.1 70 -39 -36 опасность
обморожения
1025.8 985.8
06 19.03 ЮЗ 4 20 км 3/0
[Ci fib]
-26.0 -29.8 70 -36 -36 опасность
обморожения
1024.8 985.4
09 19.03 ЮЗ 2 20 км 3/0
[Ci fib]
-28.6 -33.1 65 -36 -36 опасность
обморожения
1025.3 985.4 -25.7
12 19.03 ЮЗ 1 20 км ясно -35.5 -38.3 75 -40 -40 опасность
обморожения
1027.1 985.9
15 19.03 штиль 0 20 км ясно -37.9 -40.9 73 -38 -38 опасность
обморожения
1027.5 985.9
18 19.03 штиль 0 20 км ясно -38.6 -41.3 75 -39 -39 опасность
обморожения
1027.7 985.9
21 19.03 штиль 0 20 км ясно -39.0 -41.7 75 -39 -39 опасность
обморожения
1027.8 986.0 -39.2 24
00 20.03 З 1 20 км 8/0
[Ci fib]
-34.8 -37.7 75 -39 -38 опасность
обморожения
1026.8 985.7
03 20.03 ЮЗ 3 20 км 5/0
[Ci fib]
-25.6 -30.3 65 -34 -32 опасность
обморожения
1024.4 985.0
06 20.03 ЮЗ 4 20 км 3/0
[Ci fib]
-21.7 -27.4 60 -31 -30 опасность
обморожения
1023.6 984.8
09 20.03 штиль 0 20 км 8/0
[Ci fib]
-25.2 -29.9 65 -25 -25 1024.7 985.4 -21.6
12 20.03 З 1 20 км 6/0
[Ci fib]
-35.1 -38.0 75 -40 -40 опасность
обморожения
1027.5 986.4

 

Местоположение метеостанции Депутатский (Якутия, Россия): широта 69.38 долгота 139.80 высота над уровнем моря 284 м.

В архиве по умолчанию представлена погода в Депутатском за последнюю неделю. Архивные данные за месяц целиком и за предыдущие месяцы, начиная с января 2011 года, Вы можете получить, выбрав интересующий диапазон дат из раскрывающегося списка и нажав кнопку "Ввод!".


*Определитесь, кто Вы:
робот инопланетянин человек

Внимание! Время в таблицах - всемирное. Для получения местного времени необходимо прибавить поправку, которая равна 10 ч.

Смотрите также архив погоды в соседних городах и на ближайших метеорологических станциях:

Погода в Усть-Куйге (Якутия, Россия) (176 км)
Погода в Юбилейной (Якутия, Россия) (206 км)
Погода в Белой Горе (Якутия, Россия) (272 км)
Погода в Батагае (Якутия, Россия) (286 км)
Погода в Усть-Чарках (Якутия, Россия) (316 км)
Погода в Верхоянске (Якутия, Россия) (329 км)
Погода в Чокурдахе (Якутия, Россия) (334 км)
Погода в Усть-Моме (Якутия, Россия) (355 км)
Погода в Батагай-Алыте (Якутия, Россия) (421 км)
Погода на Мысе Кигилях (Якутия, Россия) (439 км)

Пояснения к столбцам:

Ветер - указаны скорость ветра в м/с - средняя за 10 мин, порывы в срок и между сроками (в фигурных скобках) и направление, откуда дует ветер: С - северный, СВ - северо-восточный, В - восточный, ЮВ - юго-восточный, Ю - южный, ЮЗ - юго-западный, З - западный, СЗ - северо-западный.
Видимость - горизонтальная дальность видимости в метрах или километрах. При видимости от 1 до 10 км при отсутствии осадков обычно наблюдается дымка, при ухудшении видимости до 1 км и менее - туман. В сухую погоду видимость может ухудшаться дымом, пылью или мглою.
Явления - указаны атмосферные явления, наблюдавшиеся в срок или в последний час перед сроком; фигурными скобками обозначены явления, наблюдавшиеся между сроками (за 1-3 часа до срока); квадратными скобками обозначены град или гололедные отложения с указанием их диаметра в мм.
Облачность - указаны через наклонную черту общая и нижняя облачность в баллах и высота нижней границы облаков в метрах; квадратными скобками обозначены формы облаков: Ci - перистые, Cs - перисто-слоистые, Cc - перисто-кучевые, Ac - высококучевые, As - высокослоистые, Sc - слоисто-кучевые, Ns - слоисто-дождевые, Cu - кучевые, Cb - кучево-дождевые. Подробнее классификацию облаков см. в Атласе облаков (PDF).
T - Температура воздуха - температура, измеренная на высоте 2 м над землей.
Td - Температура точки росы - температура, при понижении до которой содержащийся в воздухе водяной пар достигнет насыщения.
f - Относительная влажность воздуха - влажноcть воздуха, измеренная на высоте 2 м над землей.
Te - Эффективная температура - температура, которую ощущает одетый по сезону человек в тени. Характеристика душности погоды. При расчете учитывается влияние влажности воздуха и скорости ветра на теплоощущения человека.
Tes - Эффективная температура на солнце - температура, которую ощущает человек, с поправкой на солнечный нагрев. Характеристика знойности погоды. Зависит от высоты солнца над горизонтом, облачности и скорости ветра. Ночью, в пасмурную погоду, а также при ветре 12 м/с и более поправка равна нулю.
P - Атмосферное давление - приведенное к уровню моря атмосферное давление.
Po - Атмосферное давление - измеренное на уровне метеостанции атмосферное давление.
Tmin - Минимальная температура - минимум температуры воздуха на высоте 2 м над землей.
Tmax - Максимальная температура - максимум температуры воздуха на высоте 2 м над землей.
R - Количество осадков - Количество выпавших осадков за период времени, мм. При наведении курсора мыши на число - период времени, за который выпало указанное количество осадков.
R24 - Количество осадков - Количество выпавших осадков за 24 часа, мм.
S - Снежный покров - Высота снежного покрова, см. При наведении курсора мыши на число - состояние снежного покрова и степень покрытия местности в баллах.